Regional Weather Roundup
Issued by NWS

Home | Current Version | Previous Version | Graphics & Text | Print | Product List | Glossary Off
Versions: 1 2 3 4 5 6 7 8 9 10 11 12 13 14 15 16 17 18 19 20 21 22 23 24 25 26 27 28 29 30 31 32 33 34 35 36 37 38 39 40 41 42 43 44 45 46 47 48 49 50

000
ASUS43 KTOP 200508
RWRKS

WEATHER ROUNDUP FOR KANSAS
NATIONAL WEATHER SERVICE GOODLAND KS
1200 AM CDT SAT SEP 20 2014

NOTE:  "FAIR" INDICATES FEW OR NO CLOUDS BELOW 12,000 FEET WITH NO
SIGNIFICANT WEATHER AND/OR OBSTRUCTIONS TO VISIBILITY.

KSZ001>006-013>018-027>032-041>047-200600-
NORTHWEST KANSAS

CITY           SKY/WX    TMP DP  RH WIND       PRES   REMARKS
GOODLAND       CLEAR     70  61  73 S13       29.97R
HAYS           CLEAR     72  59  64 S13       29.93S
HILL CITY      CLEAR     74  59  59 S12       29.90F
RUSSELL        CLEAR     71  61  70 S13       29.92S
$$

KSZ061>065-074>080-084>089-200600-
SOUTHWEST KANSAS

CITY           SKY/WX    TMP DP  RH WIND       PRES   REMARKS
DODGE CITY     CLEAR     69  58  67 S8        29.98R
ELKHART          N/A     67  60  78 S8          N/A
GARDEN CITY    CLEAR     67  59  75 S7        29.98R
GREAT BEND     CLEAR     73  61  64 S14       29.95F
LIBERAL        CLEAR     68  57  68 S8        30.00S
PRATT          CLEAR     73  59  60 S13G18    29.98R
$$

KSZ066>073-081>083-090>101-200600-
SOUTHEAST KANSAS

CITY           SKY/WX    TMP DP  RH WIND       PRES   REMARKS
CHANUTE        CLEAR     66  65  96 S7        29.98F FOG
COFFEYVILLE    CLEAR     67  66  97 SE5       29.98S FOG
HUTCHINSON     CLEAR     73  63  70 S9        29.96R
MEDICINE LODGE   N/A     74  62  66 S7        29.96R
NEWTON         CLEAR     70  63  78 S10       30.00R
PARSONS        FOG       64  64 100 CALM      29.99F VSB 1/2
WICHITA INTL   PTCLDY    72  67  84 S10       29.96R
WICHITA JABRA  CLEAR     70  67  90 S12       29.96S
WICHITA MCCONL CLEAR     71  71 100 SE12      29.97S
WINFIELD       CLEAR     71  69  93 S10       29.99R
$$

KSZ007>012-019>026-033>040-048>060-102>105-200600-
NORTHEAST KANSAS

CITY           SKY/WX    TMP DP  RH WIND       PRES   REMARKS
CONCORDIA      CLEAR     74  65  73 S17       29.90F
EMPORIA        CLEAR     68  67  96 S15       29.96R FOG
LAWRENCE       PTCLDY    69  66  90 S6        29.95R FOG
MANHATTAN      PTCLDY    73  69  87 S12       29.92S
MARYSVILLE     PTCLDY    72  68  88 S9        29.90S
OLATHE IND     CLEAR     67  66  97 S8        29.97S FOG
OLATHE EXE     CLEAR     68  66  93 S8        29.95F
SALINA         CLEAR     74  65  73 S8        29.93R
TOPEKA BILLARD CLEAR     71  69  93 S8        29.94F
TOPEKA FORBES  CLEAR     69  66  90 S8        29.95S FOG
$$


USA.gov is the U.S. government's official web portal to all federal, state and local government web resources and services.